STARLINK-36304, 68550

Orbit data source: Space-Track

STARLINK-36304, 68550 is a payload satellite owned by SpaceX/Seattle (US) in LEO that was launched on Thu, 02 Apr 2026 UTC via an FALCON 9 launch vehicle from the Air Force Eastern Test Range (AFETR). Payload-class satellites include a variety of spacecraft equipped with specific instruments for various scientific and technological missions. These include communications satellites like Starlink; space stations such as the ISS; scientific satellites like the Hubble; Earth observation satellites from companies like Planet Labs, Umbra, and HawkEye 360; GPS; miniature CubeSats for education and research; and military/defense satellites.

Loading next visibility...
Identifier
68550, 2026-070J
Orbit
LEO
Country
Flag of USUS
Related business
Manufacturer
SpaceX/Seattle
Mission
Operational spacecraft
Bus & Motor
STARLINK V2MO, Unknown motor
Mass
575 kg wet, ~530 kg dry
Launch date (UTC)
2026-04-02 (2 months ago)
Launch vehicle
FALCON 9
Launch site
Air Force Eastern Test Range (AFETR)
Object type
Payload
Rocket body
Debris
Shape & HBR
Unknown shape, 14.5 m
Radar Cross Section
RCS unknown

Expand to show TLE details & history
Last TLE update: 14 hours ago

TLE from 14 hours ago
0 STARLINK-36304
1 68550U 26070J   26138.43468874  .00021959  00000-0  40187-3 0  9992
2 68550  53.1586  38.5888 0001368  81.3608 278.7556 15.49301811  7233
Epoch: 2026-05-18T10:25Z
TLE epoch observation values (Epoch: 2026-05-18T10:25:57.107Z)
Latitude
-0°
Longitude
5.97785°
Altitude
419.533 km
Speed
7.661 km/s
True Right ascension
02h 34m 21s
True Declination
0° 00' 00"
Sunlit
Object was in daylight at epoch
Visualization orbit readout
Latitude
Unknown
Longitude
Unknown
Altitude
Unknown
Speed
Unknown
Apparent Right ascension
Unknown
Apparent Declination
Unknown
Sunlit
N/A
Visualization observer readout
Local Sidereal Time
09:11:46
Azimuth
Unknown
Elevation
Unknown
Doppler factor
Unknown
Orbital elements
Apogee altitude
419.956 km
Perigee altitude
418.096 km
Semi-major axis
6,797.163 km
Eccentricity
0.00014
Inclination
53.1586°
RAAN
38.5888°
Arg. of periapsis
81.3608°
True anomaly
278.74011°
Mean anomaly
278.7556°
Eccentric anomaly
278.74785°
Mean motion
3.87304 °/min
Orbital period
92.95 mins
BSTAR
0.00040187
Loading maneuver chart data...
Computing Atmospheric mass density...
Loading historical data...
Loading historical data...
Loading historical data...
Loading historical data...
Loading historical data...
Loading historical data...
Loading historical data...

Documentation

Showing up to 5 results
|